TimeCDT,TemperatureF,Dew PointF,Humidity,Sea Level PressureIn,VisibilityMPH,Wind Direction,Wind SpeedMPH,Gust SpeedMPH,PrecipitationIn,Events,Conditions,WindDirDegrees,DateUTC
12:55 AM,60.1,48.0,64,29.90,10.0,SSE,20.7,-,N/A,,Clear,160,2013-10-09 05:55:00
1:55 AM,59.0,46.9,64,29.90,10.0,SSE,21.9,-,N/A,,Clear,160,2013-10-09 06:55:00
2:55 AM,57.9,46.9,67,29.91,10.0,SSE,20.7,-,N/A,,Clear,160,2013-10-09 07:55:00
3:55 AM,57.0,48.0,72,29.89,10.0,SSE,20.7,27.6,N/A,,Clear,160,2013-10-09 08:55:00
4:55 AM,55.9,48.0,75,29.90,10.0,SSE,18.4,-,N/A,,Clear,160,2013-10-09 09:55:00
5:55 AM,55.0,48.0,77,29.90,10.0,SSE,19.6,-,N/A,,Clear,150,2013-10-09 10:55:00
6:55 AM,55.0,46.9,74,29.90,10.0,SSE,19.6,-,N/A,,Clear,160,2013-10-09 11:55:00
7:55 AM,55.0,48.0,77,29.91,10.0,SSE,16.1,25.3,N/A,,Clear,160,2013-10-09 12:55:00
8:55 AM,57.9,48.0,70,29.92,10.0,SSE,19.6,-,N/A,,Clear,160,2013-10-09 13:55:00
9:55 AM,63.0,48.9,60,29.92,10.0,SSE,23.0,32.2,N/A,,Clear,160,2013-10-09 14:55:00
10:55 AM,68.0,50.0,52,29.94,10.0,South,19.6,27.6,N/A,,Clear,170,2013-10-09 15:55:00
11:55 AM,73.0,48.9,42,29.93,10.0,SSE,20.7,27.6,N/A,,Clear,150,2013-10-09 16:55:00
12:55 PM,77.0,48.0,36,29.92,10.0,South,20.7,28.8,N/A,,Clear,170,2013-10-09 17:55:00
1:55 PM,79.0,48.0,34,29.89,10.0,South,23.0,32.2,N/A,,Clear,180,2013-10-09 18:55:00
2:55 PM,81.0,46.0,29,29.87,10.0,South,23.0,34.5,N/A,,Clear,170,2013-10-09 19:55:00
3:55 PM,82.0,45.0,27,29.86,10.0,South,25.3,35.7,N/A,,Clear,170,2013-10-09 20:55:00
4:55 PM,81.0,45.0,28,29.86,10.0,SSE,28.8,38.0,N/A,,Clear,160,2013-10-09 21:55:00
5:55 PM,78.1,46.9,33,29.86,10.0,SSE,24.2,31.1,N/A,,Clear,160,2013-10-09 22:55:00
6:55 PM,73.9,48.0,40,29.87,10.0,SSE,19.6,-,N/A,,Clear,150,2013-10-09 23:55:00
7:55 PM,71.1,50.0,47,29.89,10.0,SE,13.8,23.0,N/A,,Clear,140,2013-10-10 00:55:00
8:55 PM,69.1,51.1,53,29.91,10.0,SE,16.1,-,N/A,,Clear,140,2013-10-10 01:55:00
9:55 PM,66.9,52.0,59,29.94,10.0,SSE,15.0,21.9,N/A,,Clear,150,2013-10-10 02:55:00
10:55 PM,64.0,54.0,70,29.94,10.0,SE,12.7,-,N/A,,Clear,140,2013-10-10 03:55:00
11:55 PM,63.0,54.0,72,29.93,10.0,SSE,13.8,-,N/A,,Clear,150,2013-10-10 04:55:00